EW2493 Weather Reports


time (UTC)temp
C
wind
direction
speed
KPH
gust
KPH
rain 1hr
cm
rain 24hr
cm
rain mn
cm
humidity
%
barometer
mb
20260504081517 10 352 12.9 22.5 0.00 0.00 0.00 69 992.8
20260504044534 13 219 9.7 20.9 0.00 0.00 0.00 53 991.5
20260504043033 13 205 8.0 24.1 0.00 0.00 0.00 53 991.8
20260504041534 13 158 9.7 22.5 0.00 0.00 0.00 51 992.0
20260504040031 14 209 9.7 27.4 0.00 0.00 0.00 49 992.3
20260504034538 15 218 8.0 24.1 0.00 0.00 0.00 48 992.4
20260504033029 15 277 8.0 19.3 0.00 0.00 0.00 46 992.7
20260504031525 15 231 6.4 22.5 0.00 0.00 0.00 45 993.1
20260504030034 15 189 8.0 19.3 0.00 0.00 0.00 45 993.3
20260504024518 15 211 4.8 16.1 0.00 0.00 0.00 45 993.4
20260504023017 16 230 8.0 16.1 0.00 0.00 0.00 44 993.6
20260504021516 15 170 6.4 14.5 0.00 0.00 0.00 44 993.7
20260504020014 16 242 8.0 16.1 0.00 0.00 0.00 43 993.9
20260504014517 16 191 8.0 14.5 0.00 0.00 0.00 40 994.2
20260504013010 17 198 6.4 14.5 0.00 0.00 0.00 38 994.4
20260504011509 19 218 4.8 11.3 0.00 0.00 0.00 36 994.7
20260504010004 20 214 6.4 12.9 0.00 0.00 0.00 33 995.1
20260504004501 20 244 4.8 16.1 0.00 0.00 0.00 31 995.4
20260504003101 21 225 4.8 14.5 0.00 0.00 0.00 30 995.8
20260504001611 21 251 3.2 19.3 0.00 0.00 0.00 28 995.9
20260504000155 22 249 8.0 19.3 0.00 0.00 0.00 27 996.2
20260503234553 22 307 12.9 25.7 0.00 0.00 0.00 26 996.6
20260503233051 22 265 11.3 30.6 0.00 0.00 0.00 25 996.8
20260503231554 22 314 11.3 22.5 0.00 0.00 0.00 23 996.9
20260503230048 22 259 12.9 29.0 0.00 0.00 0.00 23 997.0
20260503224550 22 287 17.7 30.6 0.00 0.00 0.00 23 997.3
20260503223045 22 282 16.1 29.0 0.00 0.00 0.00 21 997.5
20260503221543 22 282 11.3 37.0 0.00 0.00 0.00 25 997.6
20260503220041 22 301 14.5 32.2 0.00 0.00 0.00 22 998.0
20260503214544 22 261 9.7 33.8 0.00 0.00 0.00 23 998.2
20260503213052 22 293 17.7 27.4 0.00 0.00 0.00 25 998.7
20260503211542 22 291 16.1 29.0 0.00 0.00 0.00 25 999.0
20260503210028 21 242 19.3 33.8 0.00 0.00 0.00 27 999.2
20260503204539 21 299 14.5 30.6 0.00 0.00 0.00 25 999.6
20260503203025 21 310 20.9 32.2 0.00 0.00 0.00 25 999.9
20260503201525 21 300 16.1 29.0 0.00 0.00 0.00 28 1000.2
20260503200019 21 244 11.3 33.8 0.00 0.00 0.00 28 1000.6
20260503194522 20 308 12.9 30.6 0.00 0.00 0.00 29 1000.9
20260503193015 20 325 9.7 22.5 0.00 0.00 0.00 28 1001.3
20260503191512 20 297 16.1 25.7 0.00 0.00 0.00 30 1001.5
20260503190011 20 325 16.1 25.7 0.00 0.00 0.00 30 1001.8
20260503184508 20 295 11.3 25.7 0.00 0.00 0.00 30 1002.1
20260503183006 19 292 4.8 19.3 0.00 0.00 0.00 34 1002.4
20260503181506 19 321 8.0 27.4 0.00 0.00 0.00 33 1002.5
20260503180005 18 347 11.3 19.3 0.00 0.00 0.00 34 1002.9
20260503173131 18 348 16.1 30.6 0.00 0.00 0.00 34 1003.5
20260503171557 18 301 16.1 27.4 0.00 0.00 0.00 34 1003.7